Howell, MI

5:02 AM EDT on October 01, 2016 (GMT -0400)
Livingston County

Weather History for KOZW - November, 2014

Change the Weather History Date:

Tuesday, November 4, 2014

  Actual Average Record
Temperature  
Mean Temperature 48 °F -  
Max Temperature 56 °F 51 °F 76 °F (2015)
Min Temperature 40 °F 34 °F 21 °F (2006)
Degree Days  
Heating Degree Days 17    
Moisture  
Dew Point 40 °F    
Average Humidity 67    
Maximum Humidity 95    
Minimum Humidity 34    
Precipitation  
Precipitation 0.00 in - - ()
Sea Level Pressure  
Sea Level Pressure 29.93 in    
Wind  
Wind Speed 10 mph (SW)    
Max Wind Speed 17 mph    
Max Gust Speed 28 mph    
Visibility 9 miles    
Events Rain    
Averages and records for this station are not official NWS values.
T = Trace of Precipitation, MM = Missing Value Source: NWS Daily Summary

Daily Weather History Graph

Daily Weather History Graph

Search for Another Location

Airport or City:

Trip Planner

Search our weather history database for the weather conditions in past years. The results will help you decide how hot, cold, wet, or windy it might be!

Date:

Astronomy

Nov. 04, 2014 Rise Set
Actual Time 7:13 AM EST 5:24 PM EST
Civil Twilight 6:43 AM EST 5:54 PM EST
Nautical Twilight 6:10 AM EST 6:27 PM EST
Astronomical Twilight 5:37 AM EST 7:00 PM EST
Moon 4:13 PM EST (11/4) 4:26 AM EST (11/4)
Length of Visible Light 11h 10m
Length of Day
10h 11m
Waxing Gibbous, 94% of the Moon is Illuminated
Nov 4
Waxing Gibbous
Nov 6
Full
Nov 14
Last Quarter
Nov 22
New
Nov 29
First Quarter

Hourly Weather History & Observations

Time (EST) Temp. Windchill Dew Point Humidity Pressure Visibility Wind Dir Wind Speed Gust Speed Precip Events Conditions
12:15 AM 55.8 °F - 28.2 °F 35% 30.00 in 10.0 mi SSW 9.2 mph - N/A   Overcast
12:35 AM 56.1 °F - 28.0 °F 34% 29.99 in 10.0 mi SW 9.2 mph 17.3 mph N/A   Overcast
12:55 AM 55.4 °F - 27.9 °F 35% 29.99 in 10.0 mi SW 8.1 mph - N/A   Mostly Cloudy
1:15 AM 55.2 °F - 27.7 °F 35% 29.98 in 10.0 mi SSW 9.2 mph - N/A   Overcast
1:35 AM 55.4 °F - 28.0 °F 35% 29.98 in 10.0 mi SW 9.2 mph - N/A   Overcast
1:55 AM 55.4 °F - 28.4 °F 36% 29.98 in 10.0 mi SSW 8.1 mph - N/A   Overcast
2:15 AM 55.2 °F - 28.4 °F 36% 29.98 in 10.0 mi SSW 8.1 mph - N/A   Overcast
2:35 AM 55.2 °F - 28.8 °F 36% 29.97 in 10.0 mi SSW 10.4 mph - N/A   Overcast
2:54 AM 55.4 °F - 29.1 °F 37% 29.96 in 10.0 mi SSW 9.2 mph - N/A   Overcast
3:15 AM 55.8 °F - 29.3 °F 36% 29.96 in 10.0 mi SSW 9.2 mph - N/A   Overcast
3:35 AM 55.9 °F - 29.8 °F 37% 29.96 in 10.0 mi SSW 9.2 mph - N/A   Overcast
3:54 AM 56.1 °F - 30.2 °F 37% 29.96 in 10.0 mi SSW 10.4 mph - N/A   Overcast
4:15 AM 56.3 °F - 31.1 °F 38% 29.96 in 10.0 mi SSW 9.2 mph - N/A   Overcast
4:35 AM 56.1 °F - 32.0 °F 40% 29.95 in 10.0 mi SSW 8.1 mph 16.1 mph N/A   Overcast
4:54 AM 55.9 °F - 32.0 °F 40% 29.95 in 10.0 mi SSW 9.2 mph - N/A   Overcast
5:15 AM 56.3 °F - 33.6 °F 42% 29.94 in 10.0 mi SW 10.4 mph 17.3 mph N/A   Overcast
5:35 AM 55.9 °F - 36.7 °F 48% 29.93 in 10.0 mi SW 6.9 mph 15.0 mph N/A   Overcast
5:54 AM 55.4 °F - 34.7 °F 46% 29.93 in 10.0 mi SSW 5.8 mph - N/A   Overcast
6:15 AM 55.4 °F - 34.7 °F 46% 29.93 in 10.0 mi SSW 9.2 mph - N/A   Overcast
6:35 AM 55.4 °F - 35.1 °F 46% 29.93 in 10.0 mi SSW 9.2 mph 17.3 mph N/A   Overcast
6:54 AM 53.1 °F - 38.3 °F 57% 29.93 in 7.0 mi SW 10.4 mph 18.4 mph N/A   Light Drizzle
7:15 AM 54.0 °F - 37.8 °F 54% 29.93 in 10.0 mi SSW 8.1 mph - N/A   Overcast
7:34 AM 54.7 °F - 36.5 °F 50% 29.91 in 10.0 mi SSW 6.9 mph - N/A   Overcast
7:55 AM 54.9 °F - 36.1 °F 49% 29.92 in 10.0 mi SSW 10.4 mph - N/A   Overcast
8:15 AM 55.4 °F - 36.5 °F 49% 29.91 in 10.0 mi SSW 10.4 mph - N/A   Overcast
8:34 AM 55.0 °F - 37.0 °F 51% 29.91 in 10.0 mi SSW 11.5 mph - N/A   Overcast
8:55 AM 54.7 °F - 37.9 °F 53% 29.91 in 10.0 mi SSW 12.7 mph - N/A   Overcast
9:15 AM 54.9 °F - 39.9 °F 57% 29.90 in 10.0 mi SSW 15.0 mph 23.0 mph N/A   Overcast
9:34 AM 55.2 °F - 41.4 °F 60% 29.90 in 10.0 mi SSW 11.5 mph - N/A Rain Light Rain
9:55 AM 54.5 °F - 43.7 °F 67% 29.90 in 10.0 mi SSW 15.0 mph 24.2 mph N/A   Overcast
10:15 AM 54.0 °F - 45.3 °F 73% 29.90 in 10.0 mi SSW 17.3 mph 27.6 mph N/A   Overcast
10:34 AM 53.1 °F - 47.3 °F 81% 29.89 in 10.0 mi SSW 15.0 mph 19.6 mph N/A   Overcast
10:55 AM 53.6 °F - 46.9 °F 78% 29.89 in 10.0 mi SW 13.8 mph 23.0 mph N/A   Overcast
11:15 AM 53.6 °F - 46.4 °F 77% 29.88 in 10.0 mi SSW 11.5 mph 21.9 mph N/A   Overcast
11:34 AM 53.6 °F - 45.5 °F 74% 29.88 in 10.0 mi SSW 15.0 mph - N/A   Overcast
11:55 AM 53.6 °F - 45.5 °F 74% 29.87 in 10.0 mi SSW 16.1 mph 23.0 mph N/A   Overcast
12:15 PM 53.8 °F - 45.7 °F 74% 29.87 in 10.0 mi SSW 15.0 mph 24.2 mph N/A   Overcast
12:35 PM 53.8 °F - 46.4 °F 76% 29.86 in 10.0 mi SW 17.3 mph 23.0 mph N/A   Overcast
12:55 PM 53.2 °F - 47.3 °F 80% 29.86 in 10.0 mi SW 15.0 mph 23.0 mph N/A   Overcast
1:15 PM 52.2 °F - 48.2 °F 86% 29.86 in 7.0 mi SW 13.8 mph 24.2 mph N/A Rain Rain
1:35 PM 51.4 °F - 48.7 °F 90% 29.86 in 5.0 mi SW 13.8 mph 23.0 mph N/A   Drizzle
1:55 PM 51.1 °F - 49.1 °F 93% 29.85 in 4.0 mi SW 10.4 mph 18.4 mph N/A Rain Light Rain
2:14 PM 51.1 °F - 49.5 °F 94% 29.85 in 4.0 mi SW 10.4 mph 17.3 mph N/A Rain Rain
2:35 PM 51.1 °F - 49.5 °F 94% 29.84 in 5.0 mi SSW 13.8 mph 18.4 mph N/A Rain Light Rain
2:55 PM 51.1 °F - 49.5 °F 94% 29.85 in 7.0 mi SW 12.7 mph 21.9 mph N/A   Drizzle
3:15 PM 51.1 °F - 49.5 °F 94% 29.86 in 7.0 mi SW 12.7 mph 17.3 mph N/A   Drizzle
3:35 PM 50.9 °F - 49.5 °F 95% 29.86 in 10.0 mi SW 11.5 mph - N/A   Light Drizzle
3:55 PM 51.1 °F - 49.6 °F 95% 29.86 in 7.0 mi SW 15.0 mph 18.4 mph N/A   Light Drizzle
4:15 PM 50.9 °F - 49.3 °F 94% 29.86 in 7.0 mi SW 12.7 mph 18.4 mph N/A   Overcast
4:35 PM 50.9 °F - 49.3 °F 94% 29.87 in 7.0 mi SW 12.7 mph 19.6 mph N/A   Overcast
4:54 PM 50.9 °F - 49.1 °F 94% 29.86 in 10.0 mi SW 13.8 mph 19.6 mph N/A   Overcast
5:15 PM 50.5 °F - 48.6 °F 93% 29.87 in 10.0 mi WSW 9.2 mph - N/A   Overcast
5:35 PM 50.2 °F - 47.1 °F 89% 29.88 in 10.0 mi West 16.1 mph 20.7 mph N/A   Overcast
5:54 PM 49.1 °F - 43.9 °F 82% 29.89 in 10.0 mi West 11.5 mph - N/A   Overcast
6:15 PM 48.6 °F - 43.0 °F 81% 29.90 in 10.0 mi West 11.5 mph - N/A   Mostly Cloudy
6:35 PM 48.2 °F - 42.6 °F 81% 29.90 in 10.0 mi WSW 13.8 mph 17.3 mph N/A   Overcast
6:54 PM 48.0 °F - 41.9 °F 79% 29.91 in 10.0 mi West 13.8 mph 17.3 mph N/A   Overcast
7:15 PM 47.3 °F - 41.4 °F 80% 29.92 in 10.0 mi WSW 13.8 mph 20.7 mph N/A   Overcast
7:35 PM 46.6 °F - 40.3 °F 79% 29.94 in 10.0 mi West 15.0 mph 21.9 mph N/A   Overcast
7:54 PM 46.2 °F 40.5 °F 39.4 °F 77% 29.95 in 10.0 mi WSW 12.7 mph 20.7 mph N/A   Overcast
8:15 PM 45.7 °F 39.8 °F 39.2 °F 78% 29.96 in 10.0 mi West 12.7 mph 17.3 mph N/A   Overcast
8:35 PM 45.1 °F 40.8 °F 39.4 °F 80% 29.98 in 10.0 mi West 8.1 mph - N/A   Overcast
8:54 PM 45.3 °F 39.3 °F 38.7 °F 78% 29.98 in 10.0 mi West 12.7 mph 16.1 mph N/A   Overcast
9:15 PM 45.0 °F 39.7 °F 38.1 °F 77% 30.00 in 10.0 mi West 10.4 mph 18.4 mph N/A   Overcast
9:35 PM 44.6 °F 40.2 °F 38.1 °F 78% 30.00 in 10.0 mi West 8.1 mph - N/A   Mostly Cloudy
9:54 PM 44.1 °F 39.0 °F 37.6 °F 78% 30.01 in 10.0 mi West 9.2 mph - N/A   Mostly Cloudy
10:15 PM 43.2 °F 39.0 °F 37.9 °F 82% 30.02 in 10.0 mi WSW 6.9 mph - N/A   Mostly Cloudy
10:35 PM 42.3 °F 37.3 °F 37.4 °F 83% 30.02 in 10.0 mi WSW 8.1 mph - N/A   Scattered Clouds
10:54 PM 41.2 °F 36.6 °F 36.9 °F 85% 30.01 in 10.0 mi SW 6.9 mph - N/A   Clear
11:15 PM 40.6 °F 37.5 °F 36.7 °F 86% 30.02 in 10.0 mi SW 4.6 mph - N/A   Clear
11:34 PM 40.5 °F 37.3 °F 36.9 °F 87% 30.02 in 10.0 mi SW 4.6 mph - N/A   Clear
11:55 PM 40.5 °F 36.5 °F 36.9 °F 87% 30.02 in 10.0 mi SSW 5.8 mph - N/A   Clear